Fargo, ND

8:22 AM CDT on October 18, 2019 (GMT -0500)
Hector International

Weather History for KFAR - August, 2019

Change the Weather History Date:

Monday, August 26, 2019

  Actual Average Record
Temperature  
Mean Temperature 66 °F 67 °F  
Max Temperature 73 °F 79 °F 98 °F (1953)
Min Temperature 57 °F 55 °F 36 °F (1915)
Degree Days  
Heating Degree Days 0 2  
Month to date heating degree days 19 25  
Since 1 June heating degree days 83 114  
Since 1 July heating degree days 25 41  
Cooling Degree Days 0 4  
Month to date cooling degree days 93 149  
Year to date cooling degree days 471 489  
Since 1 June cooling degree days 461 458  
Growing Degree Days 16 (Base 50)    
Moisture  
Dew Point 61 °F    
Average Humidity 88    
Maximum Humidity 100    
Minimum Humidity 68    
Precipitation  
Precipitation 0.34 in 0.09 in 3.05 in (1928)
Month to date precipitation 3.73 2.10  
Year to date precipitation 20.07 15.57  
Snow  
Snow 0.00 in 0.00 in 0.00 in ()
Month to date snowfall 0.0 0.0  
Since 1 June snowfall 0.0 0.0  
Since 1 July snowfall 0.0 0.0  
Snow Depth 0.00 in    
Sea Level Pressure  
Sea Level Pressure 29.70 in    
Wind  
Wind Speed 8 mph ()    
Max Wind Speed 24 mph    
Max Gust Speed 37 mph    
Visibility 9.1 miles    
Events Rain , Thunderstorm    
T = Trace of Precipitation, MM = Missing Value Source: Averaged Metar Reports

Daily Weather History Graph

Daily Weather History Graph

Search for Another Location

Airport or City:

Astronomy

Aug. 26, 2019 Rise Set
Actual Time 6:38 AM CDT 8:18 PM CDT
Civil Twilight 6:06 AM CDT 8:50 PM CDT
Nautical Twilight 5:27 AM CDT 9:29 PM CDT
Astronomical Twilight 4:44 AM CDT 10:11 PM CDT
Moon 1:51 AM CDT (8/26) 5:57 PM CDT (8/26)
Length of Visible Light 14h 43m
Length of Day
13h 39m
Waning Crescent, 19% of the Moon is Illuminated
Aug 26
Waning Crescent
Aug 30
New
Sep 5
First Quarter
Sep 13
Full
Sep 21
Last Quarter

Hourly Weather History & Observations

Time (CDT) Temp. Dew Point Humidity Pressure Visibility Wind Dir Wind Speed Gust Speed Precip Events Conditions
12:15 AM 62.1 °F 62.1 °F 100% 29.77 in 7.0 mi East 9.2 mph - 0.06 in Rain Rain
12:53 AM 63.0 °F 62.1 °F 97% 29.75 in 8.0 mi ESE 9.2 mph - 0.13 in Rain Rain
1:27 AM 64.0 °F 63.0 °F 96% 29.73 in 9.0 mi South 9.2 mph - 0.08 in Rain Light Rain
1:36 AM 64.0 °F 64.0 °F 100% 29.73 in 10.0 mi SSE 11.5 mph - 0.08 in   Overcast
1:53 AM 64.0 °F 63.0 °F 96% 29.71 in 10.0 mi SSE 12.7 mph 19.6 mph 0.08 in   Overcast
2:53 AM 62.1 °F 62.1 °F 100% 29.73 in 10.0 mi South 6.9 mph - N/A   Scattered Clouds
3:53 AM 62.1 °F 61.0 °F 96% 29.73 in 10.0 mi South 6.9 mph - N/A   Mostly Cloudy
4:53 AM 63.0 °F 61.0 °F 93% 29.70 in 10.0 mi South 8.1 mph - N/A   Overcast
5:53 AM 63.0 °F 62.1 °F 97% 29.69 in 10.0 mi South 6.9 mph - N/A   Mostly Cloudy
6:03 AM 63.0 °F 62.1 °F 97% 29.68 in 10.0 mi SSE 6.9 mph - N/A   Overcast
6:20 AM 63.0 °F 62.1 °F 97% 29.69 in 8.0 mi South 5.8 mph - 0.00 in Rain Light Rain
6:53 AM 64.0 °F 63.0 °F 96% 29.68 in 9.0 mi South 6.9 mph - 0.00 in   Overcast
7:41 AM 64.0 °F 64.0 °F 100% 29.69 in 6.0 mi South 5.8 mph - N/A Thunderstorm Overcast
7:53 AM 64.0 °F 64.0 °F 100% 29.69 in 6.0 mi SSW 6.9 mph - N/A   Overcast
8:23 AM 64.9 °F 64.0 °F 97% 29.69 in 6.0 mi SW 5.8 mph - N/A   Overcast
8:37 AM 64.9 °F 64.0 °F 97% 29.69 in 6.0 mi SSW 3.5 mph - N/A   Overcast
8:53 AM 64.9 °F 64.0 °F 97% 29.69 in 7.0 mi SW 6.9 mph - N/A   Overcast
9:53 AM 64.9 °F 63.0 °F 93% 29.68 in 10.0 mi West 8.1 mph - N/A   Scattered Clouds
10:34 AM 66.0 °F 62.1 °F 87% 29.69 in 10.0 mi West 10.4 mph - N/A   Mostly Cloudy
10:44 AM 66.0 °F 63.0 °F 90% 29.69 in 10.0 mi West 9.2 mph - N/A   Scattered Clouds
10:53 AM 66.0 °F 62.1 °F 87% 29.69 in 10.0 mi West 9.2 mph - N/A   Scattered Clouds
11:53 AM 68.0 °F 61.0 °F 78% 29.70 in 10.0 mi WNW 15.0 mph - N/A   Scattered Clouds
12:09 PM 68.0 °F 62.1 °F 81% 29.70 in 10.0 mi West 12.7 mph - N/A   Mostly Cloudy
12:18 PM 68.0 °F 61.0 °F 78% 29.70 in 10.0 mi WNW 12.7 mph - N/A   Mostly Cloudy
1:53 PM 66.0 °F 60.1 °F 81% 29.70 in 10.0 mi West 13.8 mph - N/A   Overcast
2:53 PM 71.1 °F 61.0 °F 70% 29.68 in 10.0 mi WNW 16.1 mph 24.2 mph N/A   Mostly Cloudy
3:53 PM 70.0 °F 59.0 °F 68% 29.67 in 10.0 mi NW 13.8 mph - N/A   Mostly Cloudy
4:47 PM 64.4 °F 57.2 °F 77% 29.67 in 9.0 mi NNW 15.0 mph 27.6 mph 0.06 in Rain , Thunderstorm Light Thunderstorms and Rain
4:53 PM 64.0 °F 60.1 °F 87% 29.69 in 5.0 mi NNW 19.6 mph 36.8 mph 0.06 in Rain , Thunderstorm Heavy Thunderstorms and Rain
5:17 PM 66.9 °F 60.1 °F 79% 29.69 in 10.0 mi NNW 15.0 mph 20.7 mph 0.02 in Thunderstorm Scattered Clouds
5:31 PM 68.0 °F 60.1 °F 76% 29.69 in 10.0 mi NNW 11.5 mph - 0.02 in   Partly Cloudy
5:53 PM 69.1 °F 60.1 °F 73% 29.69 in 10.0 mi NNW 8.1 mph - 0.02 in   Clear
6:53 PM 68.0 °F 61.0 °F 78% 29.70 in 10.0 mi North 6.9 mph - N/A   Mostly Cloudy
7:34 PM 63.0 °F 57.9 °F 84% 29.71 in 5.0 mi North 13.8 mph - 0.02 in Rain , Thunderstorm Heavy Rain
7:49 PM 62.6 °F 55.4 °F 77% 29.71 in 10.0 mi North 5.8 mph - 0.05 in   Mostly Cloudy
7:53 PM 62.1 °F 55.9 °F 80% 29.71 in 10.0 mi NNW 4.6 mph - 0.05 in   Mostly Cloudy
8:07 PM 62.1 °F 55.9 °F 80% 29.71 in 10.0 mi NNW 4.6 mph - N/A Thunderstorm Scattered Clouds
8:22 PM 61.0 °F 57.0 °F 87% 29.72 in 10.0 mi North 3.5 mph - N/A   Partly Cloudy
8:53 PM 59.0 °F 57.0 °F 93% 29.73 in 10.0 mi SW 6.9 mph - N/A   Clear
9:53 PM 59.0 °F 55.9 °F 90% 29.74 in 10.0 mi SW 6.9 mph - N/A   Clear
10:53 PM 60.1 °F 55.9 °F 86% 29.73 in 10.0 mi SW 9.2 mph - N/A   Clear
11:53 PM 57.9 °F 55.0 °F 90% 29.72 in 10.0 mi WSW 8.1 mph - N/A   Partly Cloudy